,,�O�C���x[��],����1,�O�C���x[��],����2,���ԉ��x [��],����3,���Ԏ��x [��],����4,�Q�����x [��],����5,���� [��],����6,�R�����i��󒲎��j���x�m���n,����7
2004/3/1,0:00,0.9,0,43.7,0,24.3,0,31.5,0,18.1,0,11,0,24.8,0
2004/3/1,0:15,0.8,0,45.3,0,23.5,0,32.6,0,18,0,11.2,0,24.2,0
2004/3/1,0:30,0.7,0,45.8,0,23,0,33,0,17.9,0,11.3,0,23.6,0
2004/3/1,0:45,0.7,0,46.2,0,22.5,0,33.3,0,17.8,0,11.5,0,23.2,0
2004/3/1,1:00,0.6,0,46.3,0,22.2,0,33.6,0,17.7,0,11.7,0,22.9,0
2004/3/1,1:15,0.5,0,45.6,0,21.9,0,34.4,0,17.6,0,11.8,0,22.7,0
2004/3/1,1:30,0.4,0,48.2,0,21.6,0,34.8,0,17.5,0,11.9,0,22.4,0
2004/3/1,1:45,0.5,0,50.1,0,21.3,0,35,0,17.4,0,12.1,0,22.2,0
2004/3/1,2:00,0.5,0,48.5,0,21,0,35,0,17.3,0,12.2,0,21.9,0
2004/3/1,2:15,0.4,0,50,0,20.8,0,34.9,0,17.2,0,12.3,0,21.7,0
2004/3/1,2:30,0.5,0,50.4,0,20.5,0,34.8,0,17.1,0,12.5,0,21.5,0
2004/3/1,2:45,0.5,0,49.6,0,20.3,0,34.7,0,17,0,12.6,0,21.2,0
2004/3/1,3:00,0.5,0,50.1,0,20,0,34.7,0,16.9,0,12.7,0,21,0
2004/3/1,3:15,0.5,0,52.8,0,19.8,0,34.6,0,16.8,0,12.8,0,20.8,0
2004/3/1,3:30,0.5,0,53.9,0,19.6,0,34.5,0,16.7,0,12.9,0,20.6,0
2004/3/1,3:45,0.5,0,52.5,0,19.5,0,34.5,0,16.6,0,13,0,20.3,0
2004/3/1,4:00,0.6,0,50.1,0,19.3,0,34.4,0,16.5,0,13.1,0,20.1,0
2004/3/1,4:15,0.6,0,49.9,0,19.2,0,34.4,0,16.4,0,13.2,0,19.9,0
2004/3/1,4:30,0.8,0,50.4,0,19.3,0,33.6,0,16.3,0,13.3,0,19.9,0
2004/3/1,4:45,0.6,0,56.3,0,19.6,0,32.7,0,16.2,0,13.4,0,20.4,0
2004/3/1,5:00,0.6,0,58,0,19.9,0,32,0,16.1,0,13.5,0,21,0
2004/3/1,5:15,0.6,0,54,0,20,0,31.7,0,16.7,0,13.6,0,21.4,0
2004/3/1,5:30,0.6,0,50.8,0,20.1,0,31.4,0,17.8,0,13.7,0,21.5,0
2004/3/1,5:45,0.5,0,52.9,0,20.5,0,31.8,0,18.9,0,13.8,0,21.6,0
2004/3/1,6:00,0.5,0,50.9,0,22.4,0,29,0,19.8,0,13.9,0,22.3,0
2004/3/1,6:15,0.4,0,53.2,0,23.6,0,27,0,20.7,0,14,0,23,0
2004/3/1,6:30,0.4,0,51.9,0,24,0,26.5,0,21.4,0,14.1,0,23.5,0
2004/3/1,6:45,0.4,0,51.5,0,22.7,0,28.4,0,21.8,0,14.2,0,23.6,0
2004/3/1,7:00,0.4,0,51.1,0,23.1,0,28.4,0,22,0,10.2,0,23.7,0
2004/3/1,7:15,0.3,0,51.7,0,22.6,0,29.5,0,21.3,0,8.6,0,23.9,0
2004/3/1,7:30,0.3,0,51,0,22.7,0,30.2,0,20.4,0,8.4,0,23.9,0
2004/3/1,7:45,0.4,0,50.7,0,22.8,0,30.9,0,19.5,0,8.6,0,24,0
2004/3/1,8:00,0.5,0,51.2,0,22.8,0,30.8,0,18.8,0,8.7,0,24.1,0
2004/3/1,8:15,0.6,0,50.9,0,23,0,30.8,0,18.2,0,8.9,0,24.1,0
2004/3/1,8:30,0.7,0,50.8,0,23.1,0,30.6,0,17.8,0,9,0,24.2,0
2004/3/1,8:45,1.1,0,48.8,0,23.3,0,30.3,0,17.4,0,9.2,0,24.3,0
2004/3/1,9:00,1.5,0,48,0,23.7,0,29.8,0,17,0,7.7,0,24.5,0
2004/3/1,9:15,1.2,0,49.7,0,24.1,0,29.3,0,16.8,0,8.6,0,24.7,0
2004/3/1,9:30,1.3,0,48.1,0,24.4,0,29,0,16.5,0,8.8,0,24.7,0
2004/3/1,9:45,1.2,0,48.9,0,24.5,0,29.1,0,16.3,0,8.9,0,24.7,0
2004/3/1,10:00,1.4,0,47.6,0,25.1,0,28.1,0,16.1,0,9.1,0,24.8,0
2004/3/1,10:15,1.1,0,49.1,0,25.5,0,27.6,0,16,0,9.2,0,24.9,0
2004/3/1,10:30,1.3,0,49.3,0,26.1,0,26.9,0,15.8,0,8.8,0,25,0
2004/3/1,10:45,1.2,0,50.5,0,26.3,0,26.5,0,15.7,0,8.9,0,25.1,0
2004/3/1,11:00,1.6,0,48.6,0,26.4,0,26.6,0,15.5,0,9.1,0,25.1,0
2004/3/1,11:15,1.4,0,49.4,0,26.5,0,26.6,0,15.4,0,9.2,0,25.2,0
2004/3/1,11:30,1.7,0,51,0,26.6,0,26.5,0,15.3,0,9.3,0,25.3,0
2004/3/1,11:45,2.1,0,46.2,0,26.7,0,26.5,0,15.2,0,9.5,0,25.4,0
2004/3/1,12:00,2.2,0,44.6,0,26.7,0,26.8,0,15.1,0,9.7,0,25.6,0
2004/3/1,12:15,2.1,0,42.7,0,26.9,0,27.1,0,15,0,9.8,0,25.8,0
2004/3/1,12:30,2,0,41.8,0,26.1,0,26.7,0,14.9,0,10,0,26.3,0
2004/3/1,12:45,1.9,0,42.5,0,26.7,0,26.4,0,14.9,0,10.2,0,26.6,0
2004/3/1,13:00,2.5,0,41.1,0,26.9,0,26.7,0,14.8,0,10.4,0,26.5,0
2004/3/1,13:15,2.1,0,42.7,0,27,0,27.1,0,14.7,0,10.6,0,26.2,0
2004/3/1,13:30,2.1,0,45.3,0,26.9,0,27.4,0,14.7,0,10.8,0,26.1,0
2004/3/1,13:45,1.6,0,47.3,0,24.9,0,29.9,0,15.5,0,11,0,25.7,0
2004/3/1,14:00,1.6,0,52.1,0,24.4,0,30.3,0,16.8,0,11.3,0,25.1,0
2004/3/1,14:15,2.2,0,53.8,0,24.2,0,30.5,0,17.8,0,11.4,0,24.7,0
2004/3/1,14:30,2.2,0,57.6,0,24.1,0,30.5,0,18.6,0,11.6,0,24.5,0
2004/3/1,14:45,1.9,0,56.8,0,24.1,0,30.2,0,19.3,0,11.8,0,24.3,0
2004/3/1,15:00,1.1,0,56.8,0,24.3,0,29.7,0,19.9,0,12,0,24.1,0
2004/3/1,15:15,1.8,0,51.9,0,24,0,30,0,20.3,0,12.1,0,23.9,0
2004/3/1,15:30,1.9,0,51.2,0,24.1,0,29.6,0,20.8,0,12.3,0,23.8,0
2004/3/1,15:45,1.3,0,54.3,0,23.9,0,29.8,0,21,0,12.5,0,23.7,0
2004/3/1,16:00,0.7,0,52.1,0,23.5,0,30.3,0,21.2,0,12.6,0,23.6,0
2004/3/1,16:15,0.3,0,59,0,23.2,0,30.5,0,21.3,0,12.8,0,23.4,0
2004/3/1,16:30,-1,0,76.4,0,22.7,0,30.9,0,21.2,0,12.9,0,23.1,0
2004/3/1,16:45,-0.6,0,70.7,0,22.4,0,31.1,0,20.9,0,13.1,0,22.9,0
2004/3/1,17:00,-0.5,0,65.1,0,22.1,0,31.4,0,20.9,0,13.2,0,22.7,0
2004/3/1,17:15,-0.2,0,61.9,0,21.9,0,31.5,0,20.8,0,13.3,0,22.5,0
2004/3/1,17:30,-0.1,0,58.3,0,21.6,0,31.5,0,20.5,0,13.5,0,22.2,0
2004/3/1,17:45,-0.1,0,62.2,0,21.3,0,31.8,0,20.6,0,13.6,0,22,0
2004/3/1,18:00,-1.4,0,84,0,21.6,0,30.2,0,20.7,0,13.7,0,22.5,0
2004/3/1,18:15,-1,0,71.9,0,21.8,0,30.1,0,20.5,0,13.8,0,23.3,0
2004/3/1,18:30,-0.2,0,61,0,21.9,0,29.3,0,20.2,0,13.9,0,23.6,0
2004/3/1,18:45,-0.3,0,61.5,0,22.4,0,30,0,20.4,0,14,0,23.8,0
2004/3/1,19:00,-0.2,0,59.5,0,22.8,0,29.8,0,20.7,0,14.1,0,24.1,0
2004/3/1,19:15,-0.1,0,56.9,0,23,0,29.9,0,20.9,0,14.2,0,24.3,0
2004/3/1,19:30,0,0,51.2,0,23.2,0,29.7,0,20.6,0,14.3,0,24.4,0
2004/3/1,19:45,-0.1,0,51,0,23.3,0,29.5,0,19.8,0,14.4,0,24.5,0
2004/3/1,20:00,-0.5,0,59.7,0,23.5,0,29.4,0,19.2,0,14.5,0,24.5,0
2004/3/1,20:15,-1.2,0,69.2,0,23.7,0,29.2,0,18.7,0,14.7,0,24.5,0
2004/3/1,20:30,-1,0,67.9,0,23.7,0,29.2,0,18.3,0,14.8,0,24.5,0
2004/3/1,20:45,-1.1,0,64.4,0,23.8,0,29,0,17.9,0,14.9,0,24.5,0
2004/3/1,21:00,-1,0,61.7,0,23.8,0,29.2,0,17.6,0,9.6,0,24.5,0
2004/3/1,21:15,-1,0,60.8,0,23.9,0,28.8,0,17.3,0,11,0,24.5,0
2004/3/1,21:30,-0.8,0,56.5,0,23.9,0,28.8,0,17.1,0,11.1,0,24.5,0
2004/3/1,21:45,-0.9,0,58.2,0,24,0,28.6,0,16.8,0,11.2,0,24.6,0
2004/3/1,22:00,-0.9,0,60,0,24,0,28.7,0,16.6,0,11.4,0,24.6,0
2004/3/1,22:15,-1,0,60.1,0,24,0,28.6,0,16.4,0,11.5,0,24.6,0
2004/3/1,22:30,-1.1,0,54.7,0,24.1,0,28.8,0,16.1,0,11.7,0,24.7,0
2004/3/1,22:45,-1,0,50.9,0,24.1,0,29.2,0,16,0,11.9,0,24.7,0
2004/3/1,23:00,-0.9,0,49,0,24.1,0,29.6,0,15.8,0,12,0,24.7,0
2004/3/1,23:15,-0.9,0,49,0,24.1,0,29.7,0,15.6,0,12.2,0,24.7,0
2004/3/1,23:30,-0.9,0,47.7,0,24.2,0,29.6,0,15.5,0,12.3,0,24.7,0
2004/3/1,23:45,-1,0,46.5,0,24.5,0,29.1,0,15.4,0,12.5,0,24.7,0
2004/3/2,0:00,-1,0,47.6,0,24.6,0,29,0,15.3,0,12.6,0,24.7,0
2004/3/2,0:15,-1.1,0,49.4,0,24.4,0,29.1,0,15.2,0,12.7,0,24.7,0
2004/3/2,0:30,-1.1,0,51.1,0,24.5,0,28.9,0,15.1,0,12.9,0,24.7,0
2004/3/2,0:45,-1.3,0,58.5,0,23.6,0,30.2,0,15,0,13,0,24.5,0
2004/3/2,1:00,-1.2,0,50.7,0,22.8,0,31,0,14.9,0,13.1,0,23.9,0
2004/3/2,1:15,-1.5,0,58.1,0,22.3,0,31.4,0,14.9,0,13.3,0,23.3,0
2004/3/2,1:30,-1.8,0,65.9,0,21.9,0,31.9,0,14.9,0,13.4,0,22.9,0
2004/3/2,1:45,-1.9,0,63.3,0,21.5,0,32.2,0,14.9,0,13.5,0,22.5,0
2004/3/2,2:00,-1.6,0,65.9,0,21.2,0,33.3,0,14.8,0,13.6,0,22.2,0
2004/3/2,2:15,-1.7,0,65.6,0,20.9,0,33.6,0,14.8,0,13.7,0,22,0
2004/3/2,2:30,-1.3,0,55.2,0,20.6,0,33.7,0,14.8,0,13.8,0,21.7,0
2004/3/2,2:45,-1.6,0,63,0,20.3,0,33.6,0,14.7,0,13.9,0,21.5,0
2004/3/2,3:00,-1.5,0,55.8,0,20,0,33.5,0,14.7,0,14,0,21.2,0
2004/3/2,3:15,-2.1,0,72.3,0,19.8,0,33.4,0,14.7,0,14.1,0,20.9,0
2004/3/2,3:30,-2.1,0,68.5,0,19.6,0,33.3,0,14.6,0,14.2,0,20.7,0
2004/3/2,3:45,-1.5,0,52.2,0,19.4,0,33.3,0,14.6,0,14.2,0,20.4,0
2004/3/2,4:00,-1.5,0,55.4,0,19.2,0,33.3,0,14.5,0,14.3,0,20.2,0
2004/3/2,4:15,-1.5,0,55.2,0,18.9,0,33.2,0,14.5,0,14.4,0,19.9,0
2004/3/2,4:30,-1.4,0,55,0,19.1,0,32.6,0,14.5,0,14.5,0,19.8,0
2004/3/2,4:45,-1.4,0,52.2,0,19.4,0,31.7,0,14.4,0,14.5,0,20.1,0
2004/3/2,5:00,-1.3,0,50,0,19.7,0,31,0,14.4,0,14.6,0,20.7,0
2004/3/2,5:15,-1.2,0,48.4,0,19.7,0,30.8,0,14.5,0,14.7,0,21.1,0
2004/3/2,5:30,-1.3,0,53.2,0,19.8,0,30.5,0,16.1,0,14.8,0,21.1,0
2004/3/2,5:45,-1.5,0,59.5,0,20.6,0,29.4,0,17.4,0,14.9,0,21.5,0
2004/3/2,6:00,-1.5,0,59.3,0,23,0,26.8,0,18.6,0,14.9,0,22.3,0
2004/3/2,6:15,-1.4,0,59.8,0,22,0,28.2,0,18.9,0,15,0,22.7,0
2004/3/2,6:30,-1.3,0,56.5,0,22.2,0,27.8,0,19.6,0,15.1,0,22.9,0
2004/3/2,6:45,-1.2,0,57.6,0,22.3,0,27.1,0,20.3,0,15.3,0,23.6,0
2004/3/2,7:00,-0.9,0,55.4,0,23.3,0,26.2,0,20.9,0,10,0,24.4,0
2004/3/2,7:15,-1.3,0,64,0,22.1,0,28.6,0,20.2,0,10,0,23.9,0
2004/3/2,7:30,-1.7,0,70.7,0,22.5,0,28.8,0,19.4,0,8.7,0,23.4,0
2004/3/2,7:45,-1.5,0,72.3,0,22.2,0,30,0,18.4,0,8.9,0,23.4,0
2004/3/2,8:00,-1.5,0,75.4,0,22.3,0,30,0,17.7,0,9,0,23.6,0
2004/3/2,8:15,-1.2,0,76.7,0,22.4,0,29.9,0,17.1,0,9.1,0,23.9,0
2004/3/2,8:30,-0.9,0,72.6,0,22.2,0,30.2,0,16.6,0,8.9,0,23.8,0
2004/3/2,8:45,-0.3,0,64.5,0,21.6,0,30.8,0,16.2,0,8.8,0,23,0
2004/3/2,9:00,0,0,61,0,21.3,0,30.9,0,15.9,0,8.9,0,22.4,0
2004/3/2,9:15,0.1,0,58,0,21,0,31,0,15.6,0,9.1,0,22,0
2004/3/2,9:30,0,0,57.3,0,20.8,0,31.1,0,15.4,0,9.2,0,21.6,0
2004/3/2,9:45,0,0,65.2,0,20.7,0,31,0,15.2,0,9.3,0,21.4,0
2004/3/2,10:00,-0.2,0,69.9,0,20.6,0,30.8,0,15,0,9.4,0,21.3,0
2004/3/2,10:15,0.2,0,67.1,0,20.7,0,30.6,0,14.9,0,9.5,0,21.3,0
2004/3/2,10:30,0.8,0,62.2,0,20.6,0,30.8,0,14.8,0,9.7,0,21.2,0
2004/3/2,10:45,1.3,0,57.1,0,20.5,0,31,0,14.7,0,9.8,0,21.1,0
2004/3/2,11:00,1.2,0,55.8,0,20.4,0,31.2,0,14.7,0,9.9,0,21,0
2004/3/2,11:15,1.9,0,58.5,0,20.1,0,31.4,0,14.5,0,10.1,0,20.8,0
2004/3/2,11:30,1.3,0,59,0,20.3,0,31,0,14.5,0,10.3,0,20.8,0
2004/3/2,11:45,1.8,0,55.6,0,20.4,0,30.8,0,14.4,0,10.4,0,20.9,0
2004/3/2,12:00,2,0,53.6,0,20.4,0,31,0,14.4,0,10.6,0,20.9,0
2004/3/2,12:15,1.9,0,57,0,20.4,0,31.1,0,14.3,0,10.7,0,20.9,0
2004/3/2,12:30,2.3,0,52.3,0,20.3,0,31.1,0,14.3,0,10.9,0,20.8,0
2004/3/2,12:45,2.2,0,52.3,0,20.2,0,31.1,0,14.2,0,11,0,20.7,0
2004/3/2,13:00,1.1,0,64.3,0,20,0,31.3,0,14.2,0,11.2,0,20.6,0
2004/3/2,13:15,0,0,74.2,0,19.8,0,31.4,0,14.1,0,11.3,0,20.4,0
2004/3/2,13:30,-0.2,0,79.5,0,19.6,0,31.5,0,14,0,11.4,0,20.2,0
2004/3/2,13:45,-0.1,0,77.9,0,19.5,0,31.5,0,13.9,0,11.5,0,20.1,0
2004/3/2,14:00,-0.5,0,83.1,0,19.6,0,30.9,0,14.5,0,11.7,0,21,0
2004/3/2,14:15,-0.8,0,85.6,0,20.1,0,30.7,0,15.5,0,11.8,0,21.3,0
2004/3/2,14:30,-1.1,0,87.5,0,20.4,0,30.1,0,16.5,0,11.9,0,21.6,0
2004/3/2,14:45,-1.2,0,88.1,0,20.6,0,30.2,0,16.8,0,12.1,0,22,0
2004/3/2,15:00,-1.4,0,89.5,0,20.8,0,30.2,0,17.6,0,7.5,0,22,0
2004/3/2,15:15,-1.5,0,91.4,0,20.9,0,30,0,18.1,0,9.9,0,22.1,0
2004/3/2,15:30,-1.6,0,91.5,0,21.1,0,29.7,0,18.4,0,9.8,0,22.4,0
2004/3/2,15:45,-1.8,0,90.7,0,21.3,0,29.4,0,18.1,0,9.9,0,22.6,0
2004/3/2,16:00,-1.7,0,90.1,0,21.4,0,29.2,0,18.3,0,10,0,22.8,0
2004/3/2,16:15,-1.7,0,89.9,0,21.1,0,29.8,0,18.9,0,8.5,0,22.7,0
2004/3/2,16:30,-1.7,0,90.2,0,21.3,0,29.9,0,19.1,0,8.7,0,22.3,0
2004/3/2,16:45,-1.7,0,90.4,0,22.5,0,28.4,0,19.1,0,8.7,0,22.4,0
2004/3/2,17:00,-1.9,0,89.1,0,23.5,0,27,0,18.7,0,8.8,0,23.1,0
2004/3/2,17:15,-2,0,85.6,0,24.3,0,26.4,0,19.2,0,9,0,23.7,0
2004/3/2,17:30,-1.8,0,86.5,0,22.3,0,28.7,0,19.5,0,9.1,0,24.2,0
2004/3/2,17:45,-2,0,89.5,0,22.5,0,27.8,0,19.4,0,9.3,0,24.7,0
2004/3/2,18:00,-1.8,0,88,0,22.7,0,27.5,0,18.7,0,9.4,0,25,0
2004/3/2,18:15,-1.7,0,87.5,0,22.9,0,27.4,0,19.2,0,9.6,0,25,0
2004/3/2,18:30,-1.5,0,83.6,0,22.6,0,28.1,0,19.4,0,9.2,0,24.9,0
2004/3/2,18:45,-1.5,0,78.4,0,23.4,0,28.8,0,19.5,0,9.3,0,24.7,0
2004/3/2,19:00,-1.1,0,68,0,24,0,28.6,0,19.3,0,9.4,0,24.7,0
2004/3/2,19:15,-1,0,62.8,0,25.3,0,26.6,0,19.2,0,9.5,0,24.7,0
2004/3/2,19:30,-0.8,0,67.3,0,25.3,0,26.6,0,19.4,0,9.7,0,24.7,0
2004/3/2,19:45,-1,0,73.8,0,24.7,0,27.9,0,19.8,0,9.8,0,24.8,0
2004/3/2,20:00,-1.2,0,80,0,24.9,0,27.9,0,20,0,10,0,24.8,0
2004/3/2,20:15,-1.8,0,79.6,0,25.2,0,27.5,0,19.6,0,10.2,0,24.8,0
2004/3/2,20:30,-1.5,0,77.3,0,25.2,0,27.3,0,20,0,10.3,0,24.8,0
2004/3/2,20:45,-1.2,0,72.5,0,25.2,0,27.3,0,20.4,0,10.5,0,24.8,0
2004/3/2,21:00,-1.7,0,68.7,0,25.3,0,27.3,0,21,0,10.7,0,24.8,0
2004/3/2,21:15,-1.5,0,71.4,0,24.9,0,27.7,0,20,0,10.9,0,24.8,0
2004/3/2,21:30,-1.7,0,74.1,0,25.2,0,29.1,0,19.5,0,9.5,0,24.8,0
2004/3/2,21:45,-1.7,0,61.3,0,25.5,0,29,0,19.1,0,9.4,0,24.9,0
2004/3/2,22:00,-1.7,0,59.2,0,25.6,0,28.9,0,18.7,0,9.6,0,24.9,0
2004/3/2,22:15,-1.9,0,66,0,25.6,0,28.9,0,18.3,0,9.7,0,25,0
2004/3/2,22:30,-2.6,0,74.7,0,25.5,0,28.9,0,18,0,9.9,0,25,0
2004/3/2,22:45,-2.7,0,77.1,0,25.4,0,29,0,17.7,0,10,0,25,0
2004/3/2,23:00,-2.4,0,69.6,0,25.6,0,28.6,0,17.5,0,10.2,0,24.9,0
2004/3/2,23:15,-2.8,0,77.7,0,25.6,0,28.6,0,17.2,0,10.4,0,24.9,0
2004/3/2,23:30,-3.3,0,82.8,0,25.7,0,28.3,0,17,0,10.6,0,25,0
2004/3/2,23:45,-3.3,0,83,0,25.7,0,28.2,0,16.8,0,10.8,0,25,0
2004/3/3,0:00,-3.2,0,84.9,0,25.7,0,28.3,0,16.6,0,11,0,25,0
2004/3/3,0:15,-3.2,0,85.8,0,25.6,0,28.2,0,16.5,0,11.2,0,25,0
2004/3/3,0:30,-2.5,0,65.2,0,25.7,0,27.9,0,16.3,0,11.3,0,25,0
2004/3/3,0:45,-2.3,0,65.5,0,25.1,0,28.5,0,16.1,0,11.5,0,25,0
2004/3/3,1:00,-2.8,0,70,0,23.6,0,30.8,0,16,0,11.7,0,24.5,0
2004/3/3,1:15,-2.7,0,73.9,0,23,0,31.6,0,15.9,0,11.8,0,24,0
2004/3/3,1:30,-3.3,0,79.4,0,22.6,0,32.2,0,15.8,0,12,0,23.5,0
2004/3/3,1:45,-3.2,0,76,0,22.1,0,32.5,0,15.8,0,12.1,0,23.1,0
2004/3/3,2:00,-3.5,0,74.4,0,21.8,0,33.2,0,15.7,0,12.3,0,22.8,0
2004/3/3,2:15,-2.8,0,76.7,0,21.4,0,34,0,15.6,0,12.4,0,22.5,0
2004/3/3,2:30,-2.4,0,62.7,0,21.1,0,34.2,0,15.5,0,12.5,0,22.3,0
2004/3/3,2:45,-2.8,0,71.6,0,20.8,0,34.2,0,15.4,0,12.6,0,22,0
2004/3/3,3:00,-3.4,0,81.9,0,20.5,0,34.2,0,15.3,0,12.8,0,21.7,0
2004/3/3,3:15,-3.1,0,74.4,0,20.2,0,34.2,0,15.2,0,12.9,0,21.4,0
2004/3/3,3:30,-2.9,0,76.5,0,19.9,0,34.2,0,15.1,0,13,0,21.1,0
2004/3/3,3:45,-3.1,0,79.2,0,19.6,0,34.1,0,15,0,13.1,0,20.9,0
2004/3/3,4:00,-2.9,0,74,0,19.4,0,34,0,14.9,0,13.2,0,20.6,0
2004/3/3,4:15,-3.2,0,83.7,0,19.2,0,33.9,0,14.8,0,13.3,0,20.3,0
2004/3/3,4:30,-3.6,0,86.6,0,19.3,0,33,0,14.7,0,13.4,0,20.2,0
2004/3/3,4:45,-3.5,0,85.4,0,19.6,0,32.2,0,14.7,0,13.5,0,20.5,0
2004/3/3,5:00,-3.3,0,73.5,0,19.8,0,31.5,0,14.6,0,13.6,0,21,0
2004/3/3,5:15,-3.2,0,72.2,0,20.1,0,30.9,0,15.2,0,13.7,0,21.5,0
2004/3/3,5:30,-3.1,0,73.5,0,20,0,30.7,0,16.6,0,13.8,0,21.6,0
2004/3/3,5:45,-2.5,0,62.2,0,20.3,0,30.3,0,18,0,13.9,0,21.6,0
2004/3/3,6:00,-2.3,0,60.6,0,22.5,0,28,0,19.1,0,14,0,22.2,0
2004/3/3,6:15,-2.4,0,65.7,0,23.2,0,27,0,20.1,0,14.1,0,22.8,0
2004/3/3,6:30,-3,0,76.2,0,21.4,0,29.6,0,20.9,0,14.2,0,22.9,0
2004/3/3,6:45,-3,0,68.2,0,21.6,0,28.3,0,21.4,0,10.3,0,23.5,0
2004/3/3,7:00,-2.4,0,56.5,0,23.2,0,26.8,0,21.7,0,10.6,0,23.7,0
2004/3/3,7:15,-2.5,0,59.3,0,22.3,0,29.1,0,20.2,0,8.4,0,23.6,0
2004/3/3,7:30,-2.4,0,61.2,0,21.9,0,30.8,0,19.4,0,8.8,0,23.6,0
2004/3/3,7:45,-2.9,0,65.8,0,22,0,30.9,0,18.5,0,8.8,0,23.7,0
2004/3/3,8:00,-3.8,0,83,0,22,0,31,0,17.9,0,9,0,23.8,0
2004/3/3,8:15,-3.9,0,83.1,0,22,0,30.8,0,17.3,0,9.1,0,23.8,0
2004/3/3,8:30,-2.9,0,65,0,22,0,30.7,0,16.8,0,9.2,0,23.9,0
2004/3/3,8:45,-2.6,0,67.4,0,22.2,0,30.5,0,16.3,0,7.9,0,23.9,0
2004/3/3,9:00,-3.6,0,84.8,0,22.4,0,30.4,0,16,0,9,0,24.1,0
2004/3/3,9:15,-2.5,0,65.4,0,22.7,0,30.1,0,15.6,0,9,0,24.2,0
2004/3/3,9:30,-2.5,0,70.2,0,22.9,0,30.1,0,15.3,0,9.1,0,24.4,0
2004/3/3,9:45,-2.6,0,64.9,0,23,0,30.1,0,15.1,0,9.3,0,24.6,0
2004/3/3,10:00,-2.8,0,64.2,0,23.2,0,30,0,14.9,0,9.4,0,24.6,0
2004/3/3,10:15,-2.2,0,59.8,0,23.1,0,30.1,0,14.6,0,8.6,0,24.5,0
2004/3/3,10:30,-1.8,0,53,0,23.1,0,29.8,0,14.4,0,8.5,0,24.5,0
2004/3/3,10:45,-1.8,0,49,0,23.2,0,29.5,0,14.3,0,8.7,0,24.6,0
2004/3/3,11:00,-1.9,0,59.5,0,23.2,0,29.4,0,14.1,0,8.8,0,24.6,0
2004/3/3,11:15,-1.9,0,54.4,0,23.3,0,29.3,0,14,0,8.9,0,24.6,0
2004/3/3,11:30,-2,0,56,0,23.4,0,29.1,0,13.9,0,9.1,0,24.6,0
2004/3/3,11:45,-1.6,0,50.7,0,23.4,0,29,0,13.7,0,9.2,0,24.6,0
2004/3/3,12:00,-1.6,0,52.7,0,23.6,0,28.8,0,13.6,0,9.3,0,24.6,0
2004/3/3,12:15,-1.7,0,57.7,0,23.8,0,28.6,0,13.5,0,9.5,0,24.7,0
2004/3/3,12:30,-1.7,0,62,0,24,0,28.3,0,13.4,0,8,0,24.7,0
2004/3/3,12:45,-1.8,0,64.2,0,24,0,28.4,0,13.3,0,9.2,0,24.7,0
2004/3/3,13:00,-3.1,0,82,0,24.1,0,28.3,0,13.2,0,9.2,0,24.7,0
2004/3/3,13:15,-2.3,0,76.7,0,24.1,0,28.2,0,13.1,0,9.4,0,24.6,0
2004/3/3,13:30,-1.1,0,71.6,0,24.3,0,28,0,13,0,9.5,0,24.7,0
2004/3/3,13:45,-1.8,0,75,0,23.5,0,29.2,0,13.2,0,9.7,0,24.6,0
2004/3/3,14:00,-2.4,0,78.4,0,23.1,0,29.5,0,14.6,0,9.8,0,24.1,0
2004/3/3,14:15,-2.7,0,84,0,22.5,0,30.2,0,15.7,0,9.9,0,23.5,0
2004/3/3,14:30,-1.2,0,71.2,0,22.3,0,30,0,16.5,0,10.1,0,23.2,0
2004/3/3,14:45,-0.6,0,58.4,0,22.5,0,29.4,0,16.4,0,10.3,0,22.9,0
2004/3/3,15:00,0.1,0,56.2,0,22.7,0,28.9,0,17.5,0,10.4,0,22.7,0
2004/3/3,15:15,-1.2,0,59.3,0,22.4,0,29.1,0,18.3,0,10.6,0,22.5,0
2004/3/3,15:30,-1.1,0,60.6,0,21.9,0,29.7,0,18.8,0,10.7,0,22.2,0
2004/3/3,15:45,-0.8,0,60.6,0,21.5,0,29.9,0,18.4,0,10.9,0,21.9,0
2004/3/3,16:00,-0.5,0,52.7,0,21.3,0,30,0,18.5,0,11,0,21.7,0
2004/3/3,16:15,-1,0,54.1,0,20.9,0,30.2,0,18.9,0,11.2,0,21.4,0
2004/3/3,16:30,-1.4,0,67.5,0,20.6,0,30.3,0,19.3,0,11.3,0,21.2,0
2004/3/3,16:45,-2.1,0,80.4,0,20.3,0,30.5,0,19.1,0,11.4,0,21,0
2004/3/3,17:00,-1.9,0,78.2,0,20,0,30.7,0,19.2,0,11.6,0,20.8,0
2004/3/3,17:15,-1.8,0,77.7,0,19.8,0,30.8,0,19.6,0,11.7,0,20.6,0
2004/3/3,17:30,-2.1,0,79.7,0,19.7,0,30.9,0,19.7,0,11.8,0,20.4,0
2004/3/3,17:45,-2.3,0,80.5,0,19.5,0,31.1,0,19.3,0,12,0,20.2,0
2004/3/3,18:00,-2.3,0,80,0,19.8,0,30.3,0,19.4,0,9.6,0,21.3,0
2004/3/3,18:15,-2.3,0,81.2,0,20.1,0,29.6,0,19.7,0,9.6,0,22.6,0
2004/3/3,18:30,-2.3,0,81.6,0,20.3,0,28.9,0,19.6,0,9.6,0,22.7,0
2004/3/3,18:45,-2.4,0,81,0,20.7,0,30,0,19.1,0,9.7,0,22.7,0
2004/3/3,19:00,-2.7,0,81.2,0,21.2,0,30.8,0,19.2,0,9.9,0,23.2,0
2004/3/3,19:15,-2.9,0,81.5,0,21.6,0,30.5,0,19.8,0,8.2,0,23.4,0
2004/3/3,19:30,-3.2,0,82.4,0,22.1,0,29.8,0,20.2,0,7.9,0,23.7,0
2004/3/3,19:45,-3.4,0,84,0,22.3,0,30,0,19.2,0,8.1,0,24,0
2004/3/3,20:00,-3.4,0,85,0,22.6,0,29.5,0,19.5,0,8.2,0,24.1,0
2004/3/3,20:15,-4.5,0,85.7,0,23,0,29,0,19.3,0,8.4,0,24.2,0
2004/3/3,20:30,-4.1,0,87.4,0,23.2,0,28.8,0,19.7,0,8.5,0,24.2,0
2004/3/3,20:45,-4.2,0,86.8,0,23.2,0,29.1,0,19.7,0,8.7,0,24.2,0
2004/3/3,21:00,-4.6,0,87.6,0,23.2,0,29.1,0,18.9,0,8.8,0,24.2,0
2004/3/3,21:15,-4.9,0,87.5,0,23.4,0,29.1,0,18.3,0,8.4,0,24.3,0
2004/3/3,21:30,-4.8,0,88.4,0,23.5,0,29,0,17.7,0,8.8,0,24.4,0
2004/3/3,21:45,-4.6,0,87.4,0,24,0,28.3,0,17.3,0,8.9,0,24.4,0
2004/3/3,22:00,-4.9,0,87.6,0,24.2,0,28,0,16.9,0,9,0,24.4,0
2004/3/3,22:15,-4.8,0,87.9,0,23,0,29.6,0,16.6,0,9.2,0,24.1,0
2004/3/3,22:30,-4.2,0,86.1,0,23.3,0,29.1,0,16.3,0,9.3,0,23.5,0
2004/3/3,22:45,-4.1,0,83.6,0,22.9,0,29.5,0,16,0,9.4,0,23.5,0
2004/3/3,23:00,-3.8,0,83,0,22.7,0,29.6,0,15.8,0,9.6,0,23.6,0
2004/3/3,23:15,-3.6,0,80.9,0,22.6,0,29.5,0,15.6,0,9.7,0,23.8,0
2004/3/3,23:30,-3.6,0,80.4,0,22.7,0,29.2,0,15.3,0,9.8,0,24,0
2004/3/3,23:45,-3.5,0,78.6,0,22.7,0,29.2,0,15.1,0,10.1,0,24.1,0
2004/3/4,0:00,-3.6,0,78.5,0,22.7,0,29.2,0,14.9,0,10.2,0,24,0
2004/3/4,0:15,-3.4,0,77.5,0,22.7,0,29.3,0,14.8,0,10.3,0,24,0
2004/3/4,0:30,-3.5,0,76.8,0,22.8,0,29.5,0,14.7,0,10.5,0,24.1,0
2004/3/4,0:45,-3.5,0,77.3,0,22.3,0,30,0,14.6,0,10.6,0,23.9,0
2004/3/4,1:00,-3.9,0,76,0,21.5,0,30.8,0,14.5,0,10.8,0,23,0
2004/3/4,1:15,-4.4,0,76.6,0,21,0,31.5,0,14.5,0,10.9,0,22.3,0
2004/3/4,1:30,-3.7,0,72.9,0,20.5,0,32,0,14.5,0,11.1,0,21.8,0
2004/3/4,1:45,-2.8,0,70.2,0,20.2,0,32.6,0,14.4,0,11.2,0,21.4,0
2004/3/4,2:00,-1.9,0,68.6,0,19.9,0,33.7,0,14.4,0,11.3,0,21.1,0
2004/3/4,2:15,-1.3,0,67.9,0,19.6,0,33.9,0,14.4,0,11.5,0,20.8,0
2004/3/4,2:30,-1,0,68.7,0,19.4,0,34,0,14.3,0,11.6,0,20.5,0
2004/3/4,2:45,-0.9,0,69.1,0,19.2,0,33.8,0,14.3,0,11.7,0,20.2,0
2004/3/4,3:00,-1.5,0,70.9,0,18.9,0,33.7,0,14.2,0,11.8,0,19.9,0
2004/3/4,3:15,-1.2,0,71.6,0,18.7,0,33.6,0,14.2,0,11.9,0,19.7,0
2004/3/4,3:30,-1.9,0,73.5,0,18.5,0,33.5,0,14.1,0,12,0,19.4,0
2004/3/4,3:45,-2.1,0,74.6,0,18.3,0,33.4,0,14.1,0,12.2,0,19.2,0
2004/3/4,4:00,-2.2,0,75.2,0,18.1,0,33.4,0,14.1,0,12.3,0,19,0
2004/3/4,4:15,-1.2,0,72.9,0,17.9,0,33.3,0,14,0,12.4,0,18.8,0
2004/3/4,4:30,-0.2,0,69.3,0,17.9,0,33.1,0,14,0,12.4,0,18.7,0
2004/3/4,4:45,-0.1,0,69.8,0,18.3,0,32.2,0,13.9,0,12.5,0,19.1,0
2004/3/4,5:00,0,0,70.2,0,18.7,0,31.3,0,13.9,0,12.6,0,19.6,0
2004/3/4,5:15,0,0,71.6,0,19.1,0,30.7,0,14.1,0,12.7,0,20.2,0
2004/3/4,5:30,0,0,71.8,0,19.2,0,30.4,0,15.8,0,12.8,0,20.5,0
2004/3/4,5:45,0.2,0,71.1,0,19.8,0,29.6,0,17.1,0,12.9,0,21,0
2004/3/4,6:00,0.3,0,71.1,0,21.4,0,28.7,0,18.3,0,13,0,21.5,0
2004/3/4,6:15,0.4,0,71.4,0,22.1,0,27.7,0,17.9,0,13.2,0,22.1,0
2004/3/4,6:30,0.4,0,73,0,21.6,0,28.4,0,18.9,0,13.2,0,22.6,0
2004/3/4,6:45,0.2,0,77.8,0,21.4,0,29.9,0,19.6,0,13.4,0,24.1,0
2004/3/4,7:00,-0.3,0,87.3,0,21.4,0,29.7,0,20.3,0,9.3,0,24,0
2004/3/4,7:15,-0.4,0,89.8,0,21.6,0,31,0,19.4,0,9.8,0,23.9,0
2004/3/4,7:30,-0.4,0,89.9,0,21.7,0,31.5,0,18.6,0,7.3,0,23.8,0
2004/3/4,7:45,-0.2,0,89.8,0,21.9,0,31.9,0,17.7,0,8.7,0,23.8,0
2004/3/4,8:00,0,0,89.2,0,22.4,0,30.8,0,17,0,8.1,0,23.4,0
2004/3/4,8:15,0.1,0,89,0,21,0,32.7,0,16.4,0,8.2,0,22.8,0
2004/3/4,8:30,0.2,0,88.9,0,20.5,0,33.4,0,15.9,0,8.3,0,22,0
2004/3/4,8:45,0.2,0,89.4,0,20,0,33.7,0,15.6,0,8.4,0,21.4,0
2004/3/4,9:00,0.2,0,88.5,0,19.8,0,33.5,0,15.2,0,8.5,0,20.9,0
2004/3/4,9:15,0,0,85.2,0,19.6,0,33.4,0,15,0,8.6,0,20.5,0
2004/3/4,9:30,-0.1,0,82.9,0,19.4,0,33.3,0,14.8,0,8.7,0,20.3,0
2004/3/4,9:45,0,0,84.4,0,19.2,0,33.3,0,14.6,0,8.8,0,20,0
2004/3/4,10:00,-0.1,0,86.5,0,19.1,0,33.2,0,14.4,0,9,0,19.8,0
2004/3/4,10:15,-0.1,0,86.3,0,18.9,0,33.2,0,14.3,0,9.1,0,19.6,0
2004/3/4,10:30,-0.1,0,86.1,0,18.8,0,32.9,0,14.2,0,9.2,0,19.5,0
2004/3/4,10:45,-0.3,0,86.3,0,18.7,0,33,0,14.1,0,9.3,0,19.4,0
2004/3/4,11:00,-0.5,0,86.7,0,18.5,0,33,0,13.9,0,9.5,0,19.2,0
2004/3/4,11:15,-0.5,0,86.8,0,18.3,0,33,0,13.8,0,9.6,0,19,0
2004/3/4,11:30,-0.5,0,87.1,0,18.2,0,33,0,13.7,0,9.7,0,18.9,0
2004/3/4,11:45,-0.7,0,88.1,0,17.9,0,33.2,0,13.6,0,9.8,0,18.8,0
2004/3/4,12:00,-0.8,0,87.6,0,17.9,0,33,0,13.5,0,9.9,0,18.6,0
2004/3/4,12:15,-0.7,0,86.3,0,18.4,0,33.6,0,14,0,10,0,19.4,0
2004/3/4,12:30,-0.7,0,83.9,0,18.9,0,33.1,0,15.1,0,10.2,0,20.1,0
2004/3/4,12:45,-0.6,0,81.8,0,19.3,0,32.5,0,16,0,10.3,0,20.7,0
2004/3/4,13:00,-0.5,0,79.5,0,19.4,0,32.5,0,16.3,0,10.5,0,20.9,0
2004/3/4,13:15,0,0,69.7,0,19.5,0,32.3,0,16.2,0,10.6,0,20.6,0
2004/3/4,13:30,0.5,0,62.8,0,19.8,0,32.1,0,17.2,0,10.7,0,20.9,0
2004/3/4,13:45,1.1,0,58.4,0,19.4,0,32.5,0,17.8,0,10.9,0,20.7,0
2004/3/4,14:00,1.7,0,55,0,19.3,0,32.5,0,18.2,0,11,0,20.2,0
2004/3/4,14:15,1.5,0,53.2,0,19.3,0,32.4,0,18.2,0,11.1,0,20,0
2004/3/4,14:30,1.2,0,53.5,0,19.2,0,32.4,0,18.3,0,11.3,0,19.7,0
2004/3/4,14:45,0.8,0,54.5,0,19.2,0,32.7,0,18.9,0,11.4,0,19.6,0
2004/3/4,15:00,1,0,49.5,0,19,0,32.9,0,19,0,11.5,0,19.5,0
2004/3/4,15:15,1.1,0,49.9,0,19.1,0,32.5,0,19,0,11.7,0,19.4,0
2004/3/4,15:30,1.2,0,50,0,19.3,0,32.2,0,19.2,0,11.8,0,19.3,0
2004/3/4,15:45,0.8,0,49.4,0,19.3,0,32.3,0,19.4,0,11.9,0,19.3,0
2004/3/4,16:00,0.7,0,50.3,0,19.2,0,32.4,0,19.4,0,12,0,19.3,0
2004/3/4,16:15,0.2,0,52.1,0,19,0,32.6,0,19.5,0,12.1,0,19.2,0
2004/3/4,16:30,0,0,53.4,0,18.9,0,32.8,0,19.5,0,12.2,0,19.1,0
2004/3/4,16:45,-0.3,0,53.2,0,18.8,0,33.1,0,19.8,0,12.3,0,19,0
2004/3/4,17:00,-0.7,0,50.4,0,18.5,0,33.4,0,19.7,0,12.4,0,18.9,0
2004/3/4,17:15,-0.9,0,49.8,0,18.4,0,33.4,0,19.7,0,12.5,0,18.8,0
2004/3/4,17:30,-1.2,0,50.7,0,18.2,0,33.7,0,19.7,0,12.6,0,18.7,0
2004/3/4,17:45,-0.8,0,50.7,0,18.1,0,33.8,0,20,0,12.7,0,18.6,0
2004/3/4,18:00,-1.1,0,58.1,0,17.9,0,33.8,0,19.7,0,12.8,0,18.5,0
2004/3/4,18:15,-1.3,0,59,0,17.8,0,33.9,0,19.7,0,12.9,0,18.4,0
2004/3/4,18:30,-1.2,0,54.4,0,17.7,0,34.1,0,19.7,0,13,0,18.3,0
2004/3/4,18:45,-1.4,0,55.3,0,17.7,0,33.9,0,20.1,0,13.1,0,18.2,0
2004/3/4,19:00,-1.4,0,55,0,17.5,0,34.2,0,19.7,0,13.2,0,18.1,0
2004/3/4,19:15,-1.2,0,55.4,0,17.4,0,34.1,0,19.7,0,13.3,0,18,0
2004/3/4,19:30,-1.3,0,52.5,0,17.3,0,34.1,0,19.6,0,13.3,0,18,0
2004/3/4,19:45,-1.3,0,54.4,0,17.3,0,34.1,0,19.9,0,13.4,0,17.9,0
2004/3/4,20:00,-1.5,0,50.8,0,17.2,0,34.1,0,19.7,0,13.5,0,17.8,0
2004/3/4,20:15,-1.3,0,52.4,0,17.1,0,34.2,0,19.6,0,13.5,0,17.7,0
2004/3/4,20:30,-1.5,0,51.1,0,17.3,0,32.8,0,19.6,0,13.6,0,18.5,0
2004/3/4,20:45,-1.6,0,52.8,0,18,0,32.8,0,19.5,0,13.7,0,19.3,0
2004/3/4,21:00,-1.3,0,51.4,0,18.5,0,32.2,0,19.6,0,13.7,0,20,0
2004/3/4,21:15,-1.4,0,51.2,0,18.9,0,31.7,0,19.6,0,9.6,0,20.6,0
2004/3/4,21:30,-1.6,0,52.5,0,19.3,0,31.3,0,19.9,0,9.8,0,21.1,0
2004/3/4,21:45,-1.7,0,51.6,0,19.6,0,31,0,19.8,0,9.8,0,21.5,0
2004/3/4,22:00,-1.7,0,51.3,0,19.9,0,30.6,0,19.8,0,9.9,0,21.9,0
2004/3/4,22:15,-1.9,0,48.9,0,20.1,0,30.4,0,19.8,0,10,0,22.1,0
2004/3/4,22:30,-1.7,0,50.5,0,20.4,0,29.9,0,20.2,0,10.2,0,22.4,0
2004/3/4,22:45,-1.8,0,50.8,0,20.6,0,30.3,0,20,0,10.3,0,22.6,0
2004/3/4,23:00,-1.8,0,49.6,0,20.9,0,31.4,0,20,0,10.5,0,22.8,0
2004/3/4,23:15,-1.8,0,50.5,0,21.3,0,32.1,0,20,0,10.6,0,23,0